Regional Weather Roundup
Issued by NWS

Home | Current Version | Previous Version | Text Only | Print | Product List | Glossary On
Versions: 1 2 3 4 5 6 7 8 9 10 11 12 13 14 15 16 17 18 19 20 21 22 23 24 25 26 27 28 29 30 31 32 33 34 35 36 37 38 39 40 41 42 43 44 45 46 47 48 49 50
000
ASUS43 KMPX 210010
RWRMN
WEATHER ROUNDUP FOR MINNESOTA
NATIONAL WEATHER SERVICE TWIN CITIES/CHANHASSEN MN
600 PM CST MON FEB 20 2017


NOTE: "FAIR" INDICATES FEW OR NO CLOUDS BELOW 12,000 FEET WITH NO
SIGNIFICANT WEATHER AND/OR OBSTRUCTIONS TO VISIBILITY. N/A MEANS
CURRENT SKY AND/OR WEATHER CONDITIONS ARE NOT AVAILABLE.

MNZ060>063-068>070-210100-
   Twin Cities Metro

CITY           SKY/WX    TMP DP  RH WIND       PRES   REMARKS
TWIN CITIES    CLOUDY    53  50  89 S10       29.67F
6HR MIN TEMP:  49; 6HR MAX TEMP:  54; 6HR PCP:  0.51;

ST PAUL        CLOUDY    51  51 100 S12       29.65F FOG
CRYSTAL        CLOUDY    67  50  54 S13       29.65F
BLAINE         CLOUDY    54  54 100 SE12      29.62F FOG
LAKEVILLE      CLOUDY    52  52 100 S8        29.67R
EDEN PRAIRIE   CLOUDY    53  51  93 S10       29.64R FOG
6HR MIN TEMP:  50; 6HR MAX TEMP:  53; 6HR PCP:  0.51;

SOUTH ST PAUL  CLOUDY    52  51  98 S8        29.65F
LAKE ELMO      CLOUDY    52  52 100 SE9       29.66F
$$
MNZ001>005-007-008-013>017-022>024-027-028-210100-
   Northwest Minnesota

CITY           SKY/WX    TMP DP  RH WIND       PRES   REMARKS
BEMIDJI        RAIN      39  39 100 W17       29.59R
HALLOCK        CLOUDY    36  34  93 W7        29.65R
ROSEAU         CLOUDY    34  30  86 W9        29.59R WCI  26
WARROAD        LGT RAIN  36  30  80 W10       29.57R
THIEF RVR FALL CLOUDY    34  33  96 W14       29.65R WCI  25
CROOKSTON      CLOUDY    34  34 100 W10       29.69R WCI  26
FOSSTON        HVY RAIN  34  34 100 W6        29.63S WCI  29
DETROIT LAKES  CLOUDY    36  36 100 N9        29.65S FOG
MOORHEAD       CLOUDY    37  36  93 NW13      29.72R
PARK RAPIDS    LGT RAIN  39  37  92 W16       29.60R FOG
MAHNOMEN       CLOUDY    35  34  99 CALM      29.63F FOG
$$
MNZ006-009>011-018-025>026-210100-
   North Central Minnesota

CITY           SKY/WX    TMP DP  RH WIND       PRES   REMARKS
BAUDETTE       LGT RAIN  41  40  96 W12       29.53S FOG
FLAG ISLAND    LGT RAIN  37  37 100 W17       29.52S
INTL FALLS     CLOUDY    43  41  93 S5        29.53F
6HR MIN TEMP:  42; 6HR MAX TEMP:  46; 6HR PCP:  0.51;

WASKISH        LGT RAIN  43  43 100 SW5       29.55R
BIG FORK       LGT RAIN  43  39  87 S7        29.56F
LONGVILLE      RAIN      45  45 100 S5        29.55F
GRAND RAPIDS   LGT RAIN  43  42  97 SE13      29.56F
CRANE LAKE     RAIN      41  41 100 CALM      29.60F
ORR            DRIZZLE   41  39  93 SE8       29.54F
COOK           LGT RAIN  43  41  93 SE5       29.58F
WALKER         FOG       44  44  99 SW7       29.56R VSB 1/2
$$
MNZ012-019>021-037-210100-
   Northeast Minnesota

CITY           SKY/WX    TMP DP  RH WIND       PRES   REMARKS
DULUTH         LGT RAIN  42  42 100 S7        29.63F FOG
6HR MIN TEMP:  40; 6HR MAX TEMP:  42; 6HR PCP:  0.49;

ELY            RAIN      41  39  93 S7        29.60S
HIBBING        LGT RAIN  40  40 100 VRB5      29.58F FOG
EVELETH        LGT RAIN  42  41  96 S6        29.61F
DULUTH HARBOR  RAIN      36  36 100 CALM      29.66F
TWO HARBORS    LGT RAIN  43  37  81 CALM      29.63F
SILVER BAY     RAIN      39  39 100 NE6       29.63F
GRAND MARAIS     N/A     41  39  93 NE12      29.69F
G MARAIS ARPRT RAIN      37  36  93 SE13G20   29.66F
$$
MNZ029>031-032-039>041-046>048-054>057-064-210100-
   West Central Minnesota

CITY           SKY/WX    TMP DP  RH WIND       PRES   REMARKS
FERGUS FALLS   CLOUDY    37  37 100 NW18      29.73R
WHEATON        PTCLDY    39  36  87 W16       29.75R
MORRIS         CLOUDY    39  37  93 NW18      29.69R
ALEXANDRIA     LGT RAIN  38  38 100 NW18G26   29.66R FOG
ELBOW LAKE     CLOUDY    37  37 100 NW15      29.70R
WADENA         RAIN      39  37  93 W17G24    29.63R
GLENWOOD       RAIN      39  39 100 W15       29.66R
APPLETON       CLEAR     43  37  81 NW15G23   29.72R
BENSON         CLOUDY    43  37  81 N18G26    29.72R
ORTONVILLE       N/A     41  37  87 NW14      29.73R
WILLMAR        CLOUDY    45  45 100 NW16G29   29.68R FOG
$$
MNZ033>034-036-042>043-049>051-058-059-210100-
   Central Minnesota

CITY           SKY/WX    TMP DP  RH WIND       PRES   REMARKS
ST CLOUD       FOG       48  48 100 S8        29.60R VSB 1/4
6HR MIN TEMP:  48; 6HR MAX TEMP:  49; 6HR PCP:  0.41;

SAUK CENTRE    LGT RAIN  42  42 100 W15G30    29.63R
PAYNESVILLE    DRIZZLE   51  52 100 SW9       29.62R
AITKIN         CLOUDY    48  45  87 S9        29.55F
PINE RIVER     DRZL/FOG  45  45 100 S5        29.60F VSB 1/4
BRAINERD       CLOUDY    46  46 100 S7        29.57F FOG
STAPLES        DRZL/FOG  46  46 100 SW12G21   29.59R VSB 3/4
LONG PRAIRIE   RAIN      43  43 100 SW21G28   29.62R
LITTLE FALLS   FOG       46  45  93 SE3       29.59S VSB 1/4
LITCHFIELD     CLOUDY    54  54 100 S5        29.63R FOG
BUFFALO        CLOUDY    52  50  94 S7        29.64R FOG
MAPLE LAKE     FOG       52  52 100 S7        29.63S VSB 1
HUTCHINSON     CLOUDY    52  52 100 S7        29.65R FOG
$$
MNZ037-044-045-052-053-210100-
   East Central Minnesota

CITY           SKY/WX    TMP DP  RH WIND       PRES   REMARKS
PRINCETON      CLOUDY    52  50  93 S7        29.63R FOG
MORA           FOG       43  43 100 E5        29.60F VSB 1/2
CAMBRIDGE      CLOUDY    52  50  93 SE7       29.59F FOG
RUSH CITY      LGT RAIN  48  48 100 SE9       29.61F
MOOSE LAKE     LGT RAIN  37  36  93 CALM      29.60F VSB 3/4
HINCKLEY       LGT RAIN  48  48 100 SE5       29.61F
CLOQUET        RAIN      37  37 100 SE5       29.62F VSB 1/2
MCGREGOR       CLOUDY    45  43  93 SE7       29.58F
$$
MNZ071>073-080-081-089-090-097-098-210100-
   Southwest Minnesota

CITY           SKY/WX    TMP DP  RH WIND       PRES   REMARKS
MONTEVIDEO     MOCLDY    43  43 100 N17       29.72R
GRANITE FALLS  CLOUDY    46  43  88 W16       29.72R
CANBY          CLEAR     48  42  79 NW16G26   29.74R
MARSHALL       CLEAR     48  43  82 NW18      29.72R
REDWOOD FALLS  CLOUDY    50  46  86 W22G30    29.68R
OLIVIA         CLOUDY    46  45  93 NW13G24   29.67R FOG
PIPESTONE      CLEAR     48  39  71 NW15      29.77R
WINDOM         CLOUDY    48  46  93 W15       29.72R
WORTHINGTON    MOCLDY    48  44  86 W15       29.77R
JACKSON        CLOUDY    46  43  87 W12       29.75R
TRACY          CLOUDY    49  44  85 W13G20    29.72R
SLAYTON        PTCLDY    47  43  87 W16       29.75R
$$
MNZ065>067-074>077-082>085-091>093-210100-
   South Central Minnesota

CITY           SKY/WX    TMP DP  RH WIND       PRES   REMARKS
MANKATO          N/A     53  52  96 S10       29.69R FOG
NEW ULM        CLOUDY    52  52 100 SW16      29.67R
ST JAMES       MOCLDY    52  48  87 SW16G24   29.72R
FAIRMONT       CLOUDY    53  48  83 W26G32    29.73R
GLENCOE        CLOUDY    53  53 100 S8        29.64R FOG
FARIBAULT      CLOUDY    54  52  94 S8        29.69R
OWATONNA       CLOUDY    54  52  94 S10       29.71R
WASECA         CLOUDY    52  50  93 S14       29.72R
ALBERT LEA     CLOUDY    54  54 100 S10       29.72R FOG
$$
MNZ078>079-086>088-094>096-210100-
   Southeast Minnesota

CITY           SKY/WX    TMP DP  RH WIND       PRES   REMARKS
ROCHESTER      LGT RAIN  50  50 100 S13       29.76R
6HR MIN TEMP:  49; 6HR MAX TEMP:  51; 6HR PCP:  0.51;

RED WING       RAIN      54  50  87 SE7       29.69F
STANTON        CLOUDY    54  51  91 S10       29.66F
DODGE CENTER   LGT RAIN  52  52 100 S14       29.71F
WINONA         RAIN      54  52  94 SW5       29.77R
AUSTIN         DRIZZLE   54  52  94 S10G16    29.72F
PRESTON        CLOUDY    52  51  95 S10G17    29.77S FOG
$$
ABBREVIATIONS USED IN REMARKS
   TC - TEMPERATURES IN CELSIUS
  WCI - WIND CHILL INDEX
   HX - HEAT INDEX
  VSB - VISIBILITY
$$



USA.gov is the U.S. government's official web portal to all federal, state and local government web resources and services.